Starlink 3638

operational
NORAD ID: 51786 Int'l Des: 2022-017 Owner: SPXS Country: US Constellation: starlink
LEOCIRCULAR

About Starlink 3638

Description loading...

Live Position

Loading 3D Globe...

Upcoming Passes

Altitude History

Altitude vs Time

uPlot chart will show altitude changes over time

Two-Line Element Set

1 51786U 22017U 26049.24838728 .00000586 00000-0 54884-4 0 9994
2 51786 53.2171 76.3962 0001277 93.6736 266.4402 15.08838257219342
Epoch: Feb 18, 2026 • Age: 13 hours

Current Status

Altitude 540.4 km
Velocity 7.59 km/s
Sub-Earth Point 2.31°N, 6.61°E
Launch Date Feb 25, 2022
Age 3.9 years
Type internet

Technical Details

Classification Payload
Mass 297.00 kg
Dry Mass 275.00 kg
Total Mass 297.00 kg
Length 0.20 m
Diameter 2.80 m
Span 9.00 m
Shape Box + pan
Manufacturer SPXS
Bus Type Starlink
Phase Status In Orbit
Owner/State SPXS/US

Large Constellations

Loading constellations...